Time,TemperatureF,DewpointF,PressureIn,WindDirection,WindDirectionDegrees,WindSpeedMPH,WindSpeedGustMPH,Humidity,HourlyPrecipIn,Conditions,Clouds,dailyrainin,SolarRadiationWatts/m^2,SoftwareType,DateUTC
2013-06-15 00:01:00,68.1,62.4,29.81,East,101,1.0,3.0,82,0.01,,---,0.01,0.00,VWS V14.01,2013-06-15 05:01:00,
2013-06-15 00:06:00,67.9,62.2,29.82,ESE,106,0.0,4.0,82,0.01,,---,0.00,0.00,VWS V14.01,2013-06-15 05:06:00,
2013-06-15 00:16:00,67.8,62.5,29.82,ESE,112,0.0,6.0,83,0.01,,---,0.00,0.00,VWS V14.01,2013-06-15 05:16:00,
2013-06-15 00:21:00,67.9,62.2,29.82,East,87,3.0,3.0,82,0.01,,---,0.00,0.00,VWS V14.01,2013-06-15 05:21:00,
2013-06-15 00:26:00,67.9,62.5,29.81,East,99,0.0,4.0,83,0.01,,---,0.00,0.00,VWS V14.01,2013-06-15 05:26:00,
2013-06-15 00:31:00,67.8,62.5,29.81,East,84,3.0,6.0,83,0.01,,---,0.00,0.00,VWS V14.01,2013-06-15 05:31:00,
2013-06-15 00:36:00,67.8,62.5,29.81,ESE,105,4.0,6.0,83,0.01,,---,0.00,0.00,VWS V14.01,2013-06-15 05:36:00,
2013-06-15 00:41:00,67.8,62.5,29.81,ESE,122,1.0,7.0,83,0.01,,---,0.00,0.00,VWS V14.01,2013-06-15 05:41:00,
2013-06-15 00:51:00,67.8,62.5,29.82,SE,124,0.0,4.0,83,0.00,,---,0.00,0.00,VWS V14.01,2013-06-15 05:51:00,
2013-06-15 00:56:00,67.7,62.4,29.82,ESE,110,3.0,6.0,83,0.00,,---,0.00,0.00,VWS V14.01,2013-06-15 05:56:00,
2013-06-15 01:01:00,67.9,62.2,29.82,SE,140,0.0,9.0,82,0.00,,---,0.00,0.00,VWS V14.01,2013-06-15 06:01:00,
2013-06-15 01:10:00,68.0,62.3,29.82,ESE,111,4.0,12.0,82,0.00,,---,0.00,0.00,VWS V14.01,2013-06-15 06:10:00,
2013-06-15 01:15:00,68.1,62.4,29.82,ENE,75,0.0,8.0,82,0.00,,---,0.00,0.00,VWS V14.01,2013-06-15 06:15:00,
2013-06-15 01:20:00,68.0,62.3,29.81,ESE,121,0.0,7.0,82,0.00,,---,0.00,0.00,VWS V14.01,2013-06-15 06:20:00,
2013-06-15 01:26:00,68.0,62.3,29.82,SE,130,6.0,6.0,82,0.00,,---,0.00,0.00,VWS V14.01,2013-06-15 06:26:00,
2013-06-15 01:31:00,68.0,62.3,29.81,SSE,162,5.0,7.0,82,0.00,,---,0.00,0.00,VWS V14.01,2013-06-15 06:31:00,
2013-06-15 01:36:00,67.9,62.2,29.81,South,180,0.0,10.0,82,0.00,,---,0.00,0.00,VWS V14.01,2013-06-15 06:36:00,
2013-06-15 01:46:00,67.7,62.0,29.81,SSW,200,2.0,8.0,82,0.00,,---,0.00,0.00,VWS V14.01,2013-06-15 06:46:00,
2013-06-15 01:56:00,67.5,62.2,29.81,South,182,1.0,11.0,83,0.00,,---,0.00,0.00,VWS V14.01,2013-06-15 06:56:00,
2013-06-15 02:01:00,67.4,62.1,29.81,SE,140,1.0,7.0,83,0.00,,---,0.00,0.00,VWS V14.01,2013-06-15 07:01:00,
2013-06-15 02:06:00,67.3,62.0,29.80,SE,133,4.0,14.0,83,0.00,,---,0.00,0.00,VWS V14.01,2013-06-15 07:06:00,
2013-06-15 02:11:00,67.2,61.9,29.80,ESE,102,3.0,6.0,83,0.00,,---,0.00,0.00,VWS V14.01,2013-06-15 07:11:00,
2013-06-15 02:20:00,67.1,62.1,29.81,SE,135,3.0,10.0,84,0.00,,---,0.00,0.00,VWS V14.01,2013-06-15 07:20:00,
2013-06-15 02:25:00,67.0,62.0,29.82,ESE,117,0.0,4.0,84,0.00,,---,0.00,0.00,VWS V14.01,2013-06-15 07:25:00,
2013-06-15 02:30:00,67.0,62.0,29.81,ESE,111,1.0,4.0,84,0.00,,---,0.00,0.00,VWS V14.01,2013-06-15 07:30:00,
2013-06-15 02:36:00,66.8,62.2,29.81,ESE,117,1.0,10.0,85,0.00,,---,0.00,0.00,VWS V14.01,2013-06-15 07:36:00,
2013-06-15 02:46:00,66.8,62.2,29.81,ESE,123,2.0,9.0,85,0.00,,---,0.00,0.00,VWS V14.01,2013-06-15 07:46:00,
2013-06-15 02:56:00,66.8,62.2,29.81,ESE,113,4.0,5.0,85,0.00,,---,0.00,0.00,VWS V14.01,2013-06-15 07:56:00,
2013-06-15 03:01:00,66.9,62.2,29.81,SE,133,2.0,5.0,85,0.00,,---,0.00,0.00,VWS V14.01,2013-06-15 08:01:00,
2013-06-15 03:06:00,66.9,62.2,29.81,ESE,103,0.0,5.0,85,0.00,,---,0.00,0.00,VWS V14.01,2013-06-15 08:06:00,
2013-06-15 03:16:00,66.9,62.2,29.80,South,175,2.0,2.0,85,0.00,,---,0.00,0.00,VWS V14.01,2013-06-15 08:16:00,
2013-06-15 03:21:00,67.0,62.3,29.80,SSE,161,0.0,4.0,85,0.00,,---,0.00,0.00,VWS V14.01,2013-06-15 08:21:00,
2013-06-15 03:26:00,66.9,62.2,29.80,SW,215,4.0,6.0,85,0.00,,---,0.00,0.00,VWS V14.01,2013-06-15 08:26:00,
2013-06-15 03:35:00,66.9,62.2,29.80,ESE,119,3.0,5.0,85,0.00,,---,0.00,0.00,VWS V14.01,2013-06-15 08:35:00,
2013-06-15 03:41:00,66.9,62.2,29.79,SE,145,0.0,4.0,85,0.00,,---,0.00,0.00,VWS V14.01,2013-06-15 08:41:00,
2013-06-15 03:51:00,66.8,62.2,29.79,SW,223,1.0,5.0,85,0.00,,---,0.00,0.00,VWS V14.01,2013-06-15 08:51:00,
2013-06-15 04:01:00,66.7,62.0,29.79,SSW,201,0.0,4.0,85,0.00,,---,0.00,0.00,VWS V14.01,2013-06-15 09:01:00,
2013-06-15 04:10:00,66.7,62.4,29.79,SE,144,2.0,3.0,86,0.00,,---,0.00,0.00,VWS V14.01,2013-06-15 09:10:00,
2013-06-15 04:15:00,66.7,62.4,29.79,South,178,0.0,3.0,86,0.00,,---,0.00,0.00,VWS V14.01,2013-06-15 09:15:00,
2013-06-15 04:20:00,66.8,62.5,29.79,SW,225,0.0,4.0,86,0.00,,---,0.00,0.00,VWS V14.01,2013-06-15 09:20:00,
2013-06-15 04:25:00,66.8,62.5,29.79,SW,225,1.0,3.0,86,0.00,,---,0.00,0.00,VWS V14.01,2013-06-15 09:25:00,
2013-06-15 04:31:00,66.8,62.5,29.79,South,184,0.0,2.0,86,0.00,,---,0.00,0.00,VWS V14.01,2013-06-15 09:31:00,
2013-06-15 04:36:00,66.8,62.5,29.78,South,184,0.0,2.0,86,0.00,,---,0.00,0.00,VWS V14.01,2013-06-15 09:36:00,
2013-06-15 04:46:00,66.6,62.3,29.78,SSE,165,0.0,1.0,86,0.00,,---,0.00,0.00,VWS V14.01,2013-06-15 09:46:00,
2013-06-15 04:56:00,66.4,62.4,29.78,SSE,163,1.0,1.0,87,0.00,,---,0.00,0.00,VWS V14.01,2013-06-15 09:56:00,
2013-06-15 05:01:00,66.2,62.2,29.78,SSE,163,0.0,3.0,87,0.00,,---,0.00,0.00,VWS V14.01,2013-06-15 10:01:00,
2013-06-15 05:06:00,66.0,62.3,29.78,SSE,162,0.0,0.0,88,0.00,,---,0.00,0.00,VWS V14.01,2013-06-15 10:06:00,
2013-06-15 05:11:00,65.8,62.2,29.78,SSE,162,0.0,0.0,88,0.00,,---,0.00,0.00,VWS V14.01,2013-06-15 10:11:00,
2013-06-15 05:21:00,65.6,62.3,29.79,SSE,161,0.0,0.0,89,0.00,,---,0.00,0.00,VWS V14.01,2013-06-15 10:21:00,
2013-06-15 05:30:00,65.3,62.0,29.80,SSE,162,0.0,0.0,89,0.00,,---,0.00,0.00,VWS V14.01,2013-06-15 10:30:00,
2013-06-15 05:36:00,65.1,61.8,29.80,SSE,162,0.0,0.0,89,0.00,,---,0.00,5.00,VWS V14.01,2013-06-15 10:36:00,
2013-06-15 05:46:00,64.8,61.8,29.80,SSE,162,0.0,0.0,90,0.00,,---,0.00,9.00,VWS V14.01,2013-06-15 10:46:00,
2013-06-15 05:56:00,64.8,62.1,29.79,SSE,161,0.0,0.0,91,0.00,,---,0.00,11.00,VWS V14.01,2013-06-15 10:56:00,
2013-06-15 06:06:00,65.0,62.3,29.80,SSE,162,0.0,0.0,91,0.00,,---,0.00,7.00,VWS V14.01,2013-06-15 11:06:00,
2013-06-15 06:11:00,65.1,62.4,29.80,SSE,162,0.0,0.0,91,0.00,,---,0.00,5.00,VWS V14.01,2013-06-15 11:11:00,
2013-06-15 06:16:00,65.2,62.5,29.80,SSE,161,0.0,0.0,91,0.00,,---,0.00,9.00,VWS V14.01,2013-06-15 11:16:00,
2013-06-15 06:21:00,65.3,62.6,29.80,SSE,162,0.0,0.0,91,0.00,,---,0.00,18.00,VWS V14.01,2013-06-15 11:21:00,
2013-06-15 06:26:00,65.3,62.6,29.79,SSE,162,0.0,0.0,91,0.00,,---,0.00,23.00,VWS V14.01,2013-06-15 11:26:00,
2013-06-15 06:35:00,65.5,62.8,29.79,SSE,162,0.0,0.0,91,0.00,,---,0.00,40.00,VWS V14.01,2013-06-15 11:35:00,
2013-06-15 06:40:00,65.6,62.9,29.79,SSE,162,0.0,1.0,91,0.00,,---,0.00,63.00,VWS V14.01,2013-06-15 11:40:00,
2013-06-15 06:46:00,65.8,63.1,29.79,SSE,162,0.0,1.0,91,0.00,,---,0.00,70.00,VWS V14.01,2013-06-15 11:46:00,
2013-06-15 06:51:00,65.9,63.2,29.79,ESE,109,0.0,4.0,91,0.00,,---,0.00,128.00,VWS V14.01,2013-06-15 11:51:00,
2013-06-15 06:56:00,66.2,63.5,29.78,ESE,110,0.0,3.0,91,0.00,,---,0.00,156.00,VWS V14.01,2013-06-15 11:56:00,
2013-06-15 07:06:00,67.1,64.1,29.79,ESE,113,3.0,3.0,90,0.00,,---,0.00,192.00,VWS V14.01,2013-06-15 12:06:00,
2013-06-15 07:16:00,67.7,64.0,29.79,South,182,4.0,5.0,88,0.00,,---,0.00,84.00,VWS V14.01,2013-06-15 12:16:00,
2013-06-15 07:25:00,67.9,64.2,29.79,SSE,156,2.0,7.0,88,0.00,,---,0.00,192.00,VWS V14.01,2013-06-15 12:25:00,
2013-06-15 07:31:00,68.1,64.4,29.80,SW,215,1.0,5.0,88,0.00,,---,0.00,192.00,VWS V14.01,2013-06-15 12:31:00,
2013-06-15 07:40:00,68.1,64.4,29.81,SW,227,0.0,4.0,88,0.00,,---,0.00,62.00,VWS V14.01,2013-06-15 12:40:00,
2013-06-15 07:45:00,68.1,64.4,29.80,SSW,213,0.0,4.0,88,0.00,,---,0.00,62.00,VWS V14.01,2013-06-15 12:45:00,
2013-06-15 07:51:00,68.2,64.5,29.81,SW,214,0.0,4.0,88,0.00,,---,0.00,60.00,VWS V14.01,2013-06-15 12:51:00,
2013-06-15 07:56:00,68.3,64.6,29.81,SW,224,5.0,6.0,88,0.00,,---,0.00,58.00,VWS V14.01,2013-06-15 12:56:00,
2013-06-15 08:01:00,68.3,64.6,29.81,SW,216,0.0,6.0,88,0.00,,---,0.00,77.00,VWS V14.01,2013-06-15 13:01:00,
2013-06-15 08:06:00,68.5,64.8,29.80,SW,225,0.0,4.0,88,0.00,,---,0.00,88.00,VWS V14.01,2013-06-15 13:06:00,
2013-06-15 08:11:00,68.5,64.8,29.81,SW,224,0.0,2.0,88,0.00,,---,0.00,81.00,VWS V14.01,2013-06-15 13:11:00,
2013-06-15 08:16:00,68.7,64.7,29.81,SW,224,0.0,1.0,87,0.00,,---,0.00,97.00,VWS V14.01,2013-06-15 13:16:00,
2013-06-15 08:26:00,69.0,65.0,29.81,SW,223,0.0,3.0,87,0.00,,---,0.00,148.00,VWS V14.01,2013-06-15 13:26:00,
2013-06-15 08:35:00,69.5,65.5,29.80,SW,223,1.0,2.0,87,0.00,,---,0.00,274.00,VWS V14.01,2013-06-15 13:35:00,
2013-06-15 08:41:00,69.9,65.5,29.80,SW,223,0.0,1.0,86,0.00,,---,0.00,255.00,VWS V14.01,2013-06-15 13:41:00,
2013-06-15 08:46:00,70.5,65.8,29.80,SW,225,0.0,1.0,85,0.00,,---,0.00,425.00,VWS V14.01,2013-06-15 13:46:00,
2013-06-15 08:51:00,71.4,66.3,29.80,SW,225,0.0,0.0,84,0.00,,---,0.00,540.00,VWS V14.01,2013-06-15 13:51:00,
2013-06-15 08:56:00,72.7,66.9,29.79,SW,225,0.0,0.0,82,0.00,,---,0.00,571.00,VWS V14.01,2013-06-15 13:56:00,
2013-06-15 09:01:00,73.8,67.2,29.79,SW,225,0.0,1.0,80,0.00,,---,0.00,485.00,VWS V14.01,2013-06-15 14:01:00,
2013-06-15 09:06:00,73.8,66.5,29.79,SW,225,0.0,3.0,78,0.00,,---,0.00,515.00,VWS V14.01,2013-06-15 14:06:00,
2013-06-15 09:16:00,73.3,66.4,29.80,SW,223,1.0,1.0,79,0.00,,---,0.00,468.00,VWS V14.01,2013-06-15 14:16:00,
2013-06-15 09:21:00,73.3,66.4,29.80,SW,223,0.0,0.0,79,0.00,,---,0.00,475.00,VWS V14.01,2013-06-15 14:21:00,
2013-06-15 09:26:00,73.8,66.9,29.80,SW,223,0.0,0.0,79,0.00,,---,0.00,512.00,VWS V14.01,2013-06-15 14:26:00,
2013-06-15 09:31:00,74.4,67.1,29.80,NNW,328,1.0,2.0,78,0.00,,---,0.00,534.00,VWS V14.01,2013-06-15 14:31:00,
2013-06-15 09:36:00,74.6,67.3,29.80,NNW,328,0.0,2.0,78,0.00,,---,0.00,548.00,VWS V14.01,2013-06-15 14:36:00,
2013-06-15 09:41:00,75.4,68.1,29.80,NNW,336,0.0,3.0,78,0.00,,---,0.00,547.00,VWS V14.01,2013-06-15 14:41:00,
2013-06-15 09:46:00,76.1,67.6,29.80,NNW,331,0.0,3.0,75,0.00,,---,0.00,587.00,VWS V14.01,2013-06-15 14:46:00,
2013-06-15 09:51:00,76.2,68.1,29.81,NW,324,0.0,2.0,76,0.00,,---,0.00,482.00,VWS V14.01,2013-06-15 14:51:00,
2013-06-15 09:56:00,76.4,67.9,29.81,SSW,210,2.0,6.0,75,0.00,,---,0.00,647.00,VWS V14.01,2013-06-15 14:56:00,
2013-06-15 10:01:00,76.5,68.0,29.81,SW,230,0.0,3.0,75,0.00,,---,0.00,441.00,VWS V14.01,2013-06-15 15:01:00,
2013-06-15 10:06:00,76.7,68.6,29.80,SW,232,2.0,2.0,76,0.00,,---,0.00,686.00,VWS V14.01,2013-06-15 15:06:00,
2013-06-15 10:11:00,76.9,68.4,29.80,SW,228,1.0,3.0,75,0.00,,---,0.00,596.00,VWS V14.01,2013-06-15 15:11:00,
2013-06-15 10:16:00,76.7,67.8,29.80,SW,229,0.0,4.0,74,0.00,,---,0.00,387.00,VWS V14.01,2013-06-15 15:16:00,
2013-06-15 10:21:00,77.0,68.9,29.80,SW,229,0.0,2.0,76,0.00,,---,0.00,308.00,VWS V14.01,2013-06-15 15:21:00,
2013-06-15 10:26:00,77.6,69.1,29.80,SW,229,0.0,0.0,75,0.00,,---,0.00,290.00,VWS V14.01,2013-06-15 15:26:00,
2013-06-15 10:31:00,77.9,68.6,29.80,SW,229,0.0,0.0,73,0.00,,---,0.00,306.00,VWS V14.01,2013-06-15 15:31:00,
2013-06-15 10:36:00,77.3,68.0,29.80,SW,229,0.0,1.0,73,0.00,,---,0.00,186.00,VWS V14.01,2013-06-15 15:36:00,
2013-06-15 10:41:00,77.1,68.6,29.80,SW,229,0.0,0.0,75,0.00,,---,0.00,221.00,VWS V14.01,2013-06-15 15:41:00,
2013-06-15 10:46:00,77.1,68.2,29.80,SW,229,0.0,0.0,74,0.00,,---,0.00,260.00,VWS V14.01,2013-06-15 15:46:00,
2013-06-15 10:51:00,76.9,68.8,29.80,SW,229,0.0,0.0,76,0.00,,---,0.00,227.00,VWS V14.01,2013-06-15 15:51:00,
2013-06-15 10:56:00,75.9,67.8,29.80,SSE,162,1.0,3.0,76,0.00,,---,0.00,220.00,VWS V14.01,2013-06-15 15:56:00,
2013-06-15 11:06:00,74.9,67.6,29.80,SE,131,0.0,3.0,78,0.00,,---,0.00,371.00,VWS V14.01,2013-06-15 16:06:00,
2013-06-15 11:11:00,75.1,68.2,29.79,SE,132,0.0,0.0,79,0.00,,---,0.00,522.00,VWS V14.01,2013-06-15 16:11:00,
2013-06-15 11:16:00,75.7,68.4,29.79,SE,131,0.0,0.0,78,0.00,,---,0.00,728.00,VWS V14.01,2013-06-15 16:16:00,
2013-06-15 11:21:00,76.0,68.3,29.79,SSW,205,0.0,5.0,77,0.00,,---,0.00,601.00,VWS V14.01,2013-06-15 16:21:00,
2013-06-15 11:31:00,77.7,68.8,29.78,SSW,211,0.0,1.0,74,0.00,,---,0.00,454.00,VWS V14.01,2013-06-15 16:31:00,
2013-06-15 11:36:00,78.4,69.4,29.78,SSW,211,0.0,0.0,74,0.00,,---,0.00,251.00,VWS V14.01,2013-06-15 16:36:00,
2013-06-15 11:41:00,78.8,69.4,29.78,SW,214,0.0,0.0,73,0.00,,---,0.00,176.00,VWS V14.01,2013-06-15 16:41:00,
2013-06-15 11:46:00,78.5,69.1,29.78,SSW,202,0.0,1.0,73,0.00,,---,0.00,174.00,VWS V14.01,2013-06-15 16:46:00,
2013-06-15 11:51:00,78.3,69.3,29.78,SSW,202,0.0,0.0,74,0.00,,---,0.00,243.00,VWS V14.01,2013-06-15 16:51:00,
2013-06-15 11:56:00,78.0,69.1,29.78,SW,215,0.0,3.0,74,0.00,,---,0.00,251.00,VWS V14.01,2013-06-15 16:56:00,
2013-06-15 12:01:00,77.8,68.9,29.80,SW,215,0.0,0.0,74,0.00,,---,0.00,181.00,VWS V14.01,2013-06-15 17:01:00,
2013-06-15 12:06:00,77.7,68.8,29.81,SW,214,0.0,0.0,74,0.00,,---,0.00,139.00,VWS V14.01,2013-06-15 17:06:00,
2013-06-15 12:16:00,78.0,69.1,29.81,SW,215,0.0,0.0,74,0.00,,---,0.00,156.00,VWS V14.01,2013-06-15 17:16:00,
2013-06-15 12:26:00,77.3,68.4,29.81,SW,214,0.0,0.0,74,0.00,,---,0.00,111.00,VWS V14.01,2013-06-15 17:26:00,
2013-06-15 12:31:00,77.0,68.5,29.81,SW,214,0.0,2.0,75,0.00,,---,0.00,84.00,VWS V14.01,2013-06-15 17:31:00,
2013-06-15 12:36:00,76.5,68.4,29.81,SW,214,0.0,1.0,76,0.00,,---,0.00,70.00,VWS V14.01,2013-06-15 17:36:00,
2013-06-15 12:41:00,76.0,68.3,29.81,SW,214,0.0,0.0,77,0.00,,---,0.00,84.00,VWS V14.01,2013-06-15 17:41:00,
2013-06-15 12:46:00,75.7,68.0,29.81,SW,214,0.0,0.0,77,0.00,,---,0.00,51.00,VWS V14.01,2013-06-15 17:46:00,
2013-06-15 12:51:00,75.5,68.2,29.81,SW,214,0.0,0.0,78,0.00,,---,0.00,42.00,VWS V14.01,2013-06-15 17:51:00,
2013-06-15 12:56:00,75.3,68.3,29.81,SSW,213,0.0,2.0,79,0.00,,---,0.00,53.00,VWS V14.01,2013-06-15 17:56:00,
2013-06-15 13:06:00,74.9,68.3,29.81,SW,215,0.0,3.0,80,0.00,,---,0.00,44.00,VWS V14.01,2013-06-15 18:06:00,
2013-06-15 13:11:00,74.6,68.0,29.81,SSW,206,5.0,9.0,80,0.00,,---,0.00,47.00,VWS V14.01,2013-06-15 18:11:00,
2013-06-15 13:16:00,74.2,68.0,29.81,SSW,212,7.0,7.0,81,0.00,,---,0.00,56.00,VWS V14.01,2013-06-15 18:16:00,
2013-06-15 13:21:00,73.9,68.1,29.81,SW,222,3.0,8.0,82,0.00,,---,0.00,46.00,VWS V14.01,2013-06-15 18:21:00,
2013-06-15 13:26:00,73.7,67.9,29.81,WSW,238,4.0,7.0,82,0.00,,---,0.00,46.00,VWS V14.01,2013-06-15 18:26:00,
2013-06-15 13:31:00,73.6,67.8,29.81,SSW,197,5.0,7.0,82,0.00,,---,0.00,74.00,VWS V14.01,2013-06-15 18:31:00,
2013-06-15 13:36:00,73.5,68.0,29.81,SW,219,6.0,7.0,83,0.00,,---,0.00,70.00,VWS V14.01,2013-06-15 18:36:00,
2013-06-15 13:41:00,73.6,68.1,29.80,SSW,209,3.0,6.0,83,0.00,,---,0.00,69.00,VWS V14.01,2013-06-15 18:41:00,
2013-06-15 13:46:00,73.6,68.5,29.80,SW,217,2.0,5.0,84,0.00,,---,0.00,65.00,VWS V14.01,2013-06-15 18:46:00,
2013-06-15 13:56:00,72.9,68.5,29.80,SSW,210,5.0,7.0,86,0.00,,---,0.00,81.00,VWS V14.01,2013-06-15 18:56:00,
2013-06-15 14:01:00,72.6,68.2,29.80,SW,234,2.0,6.0,86,0.00,,---,0.00,56.00,VWS V14.01,2013-06-15 19:01:00,
2013-06-15 14:06:00,72.5,68.4,29.80,SW,224,0.0,8.0,87,0.00,,---,0.00,35.00,VWS V14.01,2013-06-15 19:06:00,
2013-06-15 14:11:00,72.6,68.5,29.80,SW,224,0.0,3.0,87,0.00,,---,0.00,35.00,VWS V14.01,2013-06-15 19:11:00,
2013-06-15 14:16:00,72.7,68.9,29.80,SW,226,0.0,2.0,88,0.00,,---,0.00,44.00,VWS V14.01,2013-06-15 19:16:00,
2013-06-15 14:26:00,72.3,68.2,29.80,NNW,329,6.0,6.0,87,0.00,,---,0.00,14.00,VWS V14.01,2013-06-15 19:26:00,
2013-06-15 14:36:00,69.9,65.2,29.80,NNW,345,3.0,3.0,85,0.02,,---,0.02,18.00,VWS V14.01,2013-06-15 19:36:00,
2013-06-15 14:46:00,67.7,63.4,29.80,NW,323,0.0,3.0,86,0.02,,---,0.02,14.00,VWS V14.01,2013-06-15 19:46:00,
2013-06-15 14:51:00,67.1,63.4,29.79,NW,323,0.0,0.0,88,0.02,,---,0.02,18.00,VWS V14.01,2013-06-15 19:51:00,
2013-06-15 15:00:00,66.5,63.2,29.79,NW,323,0.0,0.0,89,0.02,,---,0.02,21.00,VWS V14.01,2013-06-15 20:00:00,
2013-06-15 15:06:00,66.5,63.8,29.79,NW,323,0.0,0.0,91,0.02,,---,0.02,25.00,VWS V14.01,2013-06-15 20:06:00,
2013-06-15 15:11:00,66.5,63.8,29.79,NW,323,0.0,0.0,91,0.07,,---,0.07,54.00,VWS V14.01,2013-06-15 20:11:00,
2013-06-15 15:16:00,66.5,64.1,29.79,NW,323,0.0,0.0,92,0.07,,---,0.07,62.00,VWS V14.01,2013-06-15 20:16:00,
2013-06-15 15:21:00,66.6,64.2,29.80,NW,323,2.0,2.0,92,0.07,,---,0.07,30.00,VWS V14.01,2013-06-15 20:21:00,
2013-06-15 15:26:00,66.5,64.1,29.81,NW,323,0.0,3.0,92,0.07,,---,0.07,16.00,VWS V14.01,2013-06-15 20:26:00,
2013-06-15 15:31:00,66.4,64.0,29.80,NW,323,0.0,0.0,92,0.07,,---,0.07,14.00,VWS V14.01,2013-06-15 20:31:00,
2013-06-15 15:36:00,66.3,64.2,29.81,NW,317,1.0,2.0,93,0.06,,---,0.07,18.00,VWS V14.01,2013-06-15 20:36:00,
2013-06-15 15:41:00,66.2,64.1,29.83,East,96,2.0,7.0,93,0.05,,---,0.07,7.00,VWS V14.01,2013-06-15 20:41:00,
2013-06-15 15:46:00,66.1,63.7,29.84,SW,217,16.0,26.0,92,0.05,,---,0.07,9.00,VWS V14.01,2013-06-15 20:46:00,
2013-06-15 15:51:00,65.7,62.7,29.86,SSW,194,11.0,21.0,90,0.06,,---,0.08,9.00,VWS V14.01,2013-06-15 20:51:00,
2013-06-15 15:56:00,65.0,61.7,29.86,South,181,6.0,15.0,89,0.06,,---,0.08,12.00,VWS V14.01,2013-06-15 20:56:00,
2013-06-15 16:01:00,64.2,61.2,29.85,ESE,105,3.0,16.0,90,0.11,,---,0.13,25.00,VWS V14.01,2013-06-15 21:01:00,
2013-06-15 16:06:00,63.8,61.4,29.86,ESE,113,4.0,4.0,92,0.19,,---,0.21,33.00,VWS V14.01,2013-06-15 21:06:00,
2013-06-15 16:16:00,63.4,61.3,29.85,SE,132,0.0,4.0,93,0.18,,---,0.25,172.00,VWS V14.01,2013-06-15 21:16:00,
2013-06-15 16:21:00,63.7,62.0,29.84,SE,132,0.0,4.0,94,0.18,,---,0.25,234.00,VWS V14.01,2013-06-15 21:21:00,
2013-06-15 16:26:00,64.0,62.2,29.83,SE,132,0.0,2.0,94,0.18,,---,0.25,283.00,VWS V14.01,2013-06-15 21:26:00,
2013-06-15 16:31:00,64.4,62.9,29.83,SE,132,2.0,2.0,95,0.18,,---,0.25,267.00,VWS V14.01,2013-06-15 21:31:00,
2013-06-15 16:36:00,64.4,62.9,29.82,SE,132,0.0,3.0,95,0.18,,---,0.25,336.00,VWS V14.01,2013-06-15 21:36:00,
2013-06-15 16:46:00,65.9,64.4,29.81,SE,132,0.0,0.0,95,0.18,,---,0.25,758.00,VWS V14.01,2013-06-15 21:46:00,
2013-06-15 16:55:00,67.6,66.4,29.80,SE,132,0.0,0.0,96,0.17,,---,0.25,701.00,VWS V14.01,2013-06-15 21:55:00,
2013-06-15 17:01:00,68.1,66.6,29.81,SE,132,0.0,0.0,95,0.17,,---,0.25,664.00,VWS V14.01,2013-06-15 22:01:00,
2013-06-15 17:06:00,69.1,67.3,29.80,NNE,24,2.0,2.0,94,0.12,,---,0.25,687.00,VWS V14.01,2013-06-15 22:06:00,
2013-06-15 17:11:00,70.1,68.3,29.80,North,355,0.0,2.0,94,0.04,,---,0.25,698.00,VWS V14.01,2013-06-15 22:11:00,
2013-06-15 17:16:00,70.6,67.8,29.79,WNW,296,0.0,1.0,91,0.00,,---,0.25,302.00,VWS V14.01,2013-06-15 22:16:00,
2013-06-15 17:21:00,71.0,66.9,29.79,WNW,296,0.0,0.0,87,0.00,,---,0.25,585.00,VWS V14.01,2013-06-15 22:21:00,
2013-06-15 17:26:00,71.3,66.2,29.79,WNW,297,0.0,0.0,84,0.00,,---,0.25,619.00,VWS V14.01,2013-06-15 22:26:00,
2013-06-15 17:31:00,71.9,67.2,29.79,North,360,0.0,4.0,85,0.00,,---,0.25,617.00,VWS V14.01,2013-06-15 22:31:00,
2013-06-15 17:36:00,71.7,66.6,29.79,NNW,342,0.0,4.0,84,0.00,,---,0.25,550.00,VWS V14.01,2013-06-15 22:36:00,
2013-06-15 17:41:00,72.1,67.7,29.79,NNW,342,0.0,0.0,86,0.00,,---,0.25,520.00,VWS V14.01,2013-06-15 22:41:00,
2013-06-15 17:46:00,72.9,68.1,29.78,NNW,342,0.0,0.0,85,0.00,,---,0.25,480.00,VWS V14.01,2013-06-15 22:46:00,
2013-06-15 17:51:00,73.0,66.8,29.77,NNW,342,0.0,2.0,81,0.00,,---,0.25,450.00,VWS V14.01,2013-06-15 22:51:00,
2013-06-15 17:56:00,72.5,66.3,29.78,NNW,344,0.0,2.0,81,0.00,,---,0.25,443.00,VWS V14.01,2013-06-15 22:56:00,
2013-06-15 18:01:00,71.8,66.0,29.77,NNW,345,0.0,1.0,82,0.00,,---,0.25,417.00,VWS V14.01,2013-06-15 23:01:00,
2013-06-15 18:06:00,72.1,67.3,29.77,NNW,345,0.0,0.0,85,0.00,,---,0.25,411.00,VWS V14.01,2013-06-15 23:06:00,
2013-06-15 18:11:00,72.8,67.0,29.77,NNW,345,0.0,0.0,82,0.00,,---,0.25,397.00,VWS V14.01,2013-06-15 23:11:00,
2013-06-15 18:21:00,73.9,67.3,29.77,NNW,345,0.0,1.0,80,0.00,,---,0.25,374.00,VWS V14.01,2013-06-15 23:21:00,
2013-06-15 18:26:00,73.8,66.9,29.77,NNW,345,0.0,1.0,79,0.00,,---,0.25,364.00,VWS V14.01,2013-06-15 23:26:00,
2013-06-15 18:31:00,73.9,66.6,29.77,NNW,345,0.0,1.0,78,0.00,,---,0.25,345.00,VWS V14.01,2013-06-15 23:31:00,
2013-06-15 18:36:00,74.1,67.2,29.77,NNW,345,0.0,0.0,79,0.00,,---,0.25,171.00,VWS V14.01,2013-06-15 23:36:00,
2013-06-15 18:41:00,74.4,66.0,29.77,NNW,345,0.0,0.0,75,0.00,,---,0.25,230.00,VWS V14.01,2013-06-15 23:41:00,
2013-06-15 18:46:00,74.8,64.4,29.77,WNW,296,0.0,3.0,70,0.00,,---,0.25,302.00,VWS V14.01,2013-06-15 23:46:00,
2013-06-15 18:51:00,75.5,63.8,29.77,West,261,0.0,5.0,67,0.00,,---,0.25,236.00,VWS V14.01,2013-06-15 23:51:00,
2013-06-15 18:56:00,75.6,63.5,29.76,SW,233,4.0,4.0,66,0.00,,---,0.25,81.00,VWS V14.01,2013-06-15 23:56:00,
2013-06-15 19:01:00,75.1,64.2,29.76,SW,232,1.0,4.0,69,0.00,,---,0.25,88.00,VWS V14.01,2013-06-16 00:01:00,
2013-06-15 19:06:00,74.5,63.7,29.76,SW,232,0.0,5.0,69,0.00,,---,0.25,53.00,VWS V14.01,2013-06-16 00:06:00,
2013-06-15 19:11:00,74.4,64.8,29.76,SW,236,0.0,3.0,72,0.00,,---,0.25,46.00,VWS V14.01,2013-06-16 00:11:00,
2013-06-15 19:16:00,74.5,64.5,29.77,SW,236,3.0,3.0,71,0.00,,---,0.25,40.00,VWS V14.01,2013-06-16 00:16:00,
2013-06-15 19:21:00,74.4,64.4,29.77,SW,235,3.0,4.0,71,0.00,,---,0.25,39.00,VWS V14.01,2013-06-16 00:21:00,
2013-06-15 19:26:00,74.1,64.5,29.77,SW,231,2.0,4.0,72,0.00,,---,0.25,39.00,VWS V14.01,2013-06-16 00:26:00,
2013-06-15 19:31:00,74.0,64.4,29.77,SW,227,0.0,4.0,72,0.00,,---,0.25,35.00,VWS V14.01,2013-06-16 00:31:00,
2013-06-15 19:36:00,74.0,64.4,29.77,SW,227,0.0,2.0,72,0.00,,---,0.25,33.00,VWS V14.01,2013-06-16 00:36:00,
2013-06-15 19:41:00,74.2,65.0,29.77,SW,228,0.0,0.0,73,0.00,,---,0.25,33.00,VWS V14.01,2013-06-16 00:41:00,
2013-06-15 19:46:00,74.3,65.1,29.77,SW,228,0.0,0.0,73,0.00,,---,0.25,32.00,VWS V14.01,2013-06-16 00:46:00,
2013-06-15 19:51:00,74.3,65.1,29.77,SW,228,0.0,0.0,73,0.00,,---,0.25,32.00,VWS V14.01,2013-06-16 00:51:00,
2013-06-15 19:56:00,74.1,64.9,29.77,SW,227,0.0,2.0,73,0.00,,---,0.25,26.00,VWS V14.01,2013-06-16 00:56:00,
2013-06-15 20:01:00,73.7,64.9,29.76,SW,228,0.0,1.0,74,0.00,,---,0.25,23.00,VWS V14.01,2013-06-16 01:01:00,
2013-06-15 20:06:00,73.3,65.3,29.76,SW,228,0.0,0.0,76,0.00,,---,0.25,25.00,VWS V14.01,2013-06-16 01:06:00,
2013-06-15 20:11:00,72.9,65.3,29.76,SW,227,0.0,0.0,77,0.00,,---,0.25,25.00,VWS V14.01,2013-06-16 01:11:00,
2013-06-15 20:16:00,72.6,65.3,29.76,SW,227,0.0,1.0,78,0.00,,---,0.25,30.00,VWS V14.01,2013-06-16 01:16:00,
2013-06-15 20:21:00,72.5,65.3,29.77,SW,228,0.0,0.0,78,0.00,,---,0.25,32.00,VWS V14.01,2013-06-16 01:21:00,
2013-06-15 20:26:00,72.4,65.5,29.77,SW,228,0.0,0.0,79,0.00,,---,0.25,26.00,VWS V14.01,2013-06-16 01:26:00,
2013-06-15 20:31:00,72.3,65.4,29.77,SW,228,0.0,0.0,79,0.00,,---,0.25,21.00,VWS V14.01,2013-06-16 01:31:00,
2013-06-15 20:36:00,72.1,65.6,29.77,SW,228,0.0,0.0,80,0.00,,---,0.25,18.00,VWS V14.01,2013-06-16 01:36:00,
2013-06-15 20:41:00,71.9,65.8,29.77,SW,228,0.0,0.0,81,0.00,,---,0.25,16.00,VWS V14.01,2013-06-16 01:41:00,
2013-06-15 20:46:00,71.6,65.8,29.77,SW,227,0.0,0.0,82,0.00,,---,0.25,12.00,VWS V14.01,2013-06-16 01:46:00,
2013-06-15 20:51:00,71.3,65.5,29.77,SW,228,0.0,0.0,82,0.00,,---,0.25,11.00,VWS V14.01,2013-06-16 01:51:00,
2013-06-15 20:56:00,70.9,65.5,29.77,SW,228,0.0,0.0,83,0.00,,---,0.25,7.00,VWS V14.01,2013-06-16 01:56:00,
2013-06-15 21:01:00,70.4,65.3,29.77,SW,228,0.0,0.0,84,0.00,,---,0.25,5.00,VWS V14.01,2013-06-16 02:01:00,
2013-06-15 21:06:00,69.9,65.2,29.77,SW,227,0.0,0.0,85,0.00,,---,0.25,0.00,VWS V14.01,2013-06-16 02:06:00,
2013-06-15 21:11:00,69.5,64.8,29.77,SW,228,0.0,0.0,85,0.00,,---,0.25,0.00,VWS V14.01,2013-06-16 02:11:00,
2013-06-15 21:16:00,69.1,64.7,29.77,SW,228,0.0,0.0,86,0.00,,---,0.25,0.00,VWS V14.01,2013-06-16 02:16:00,
2013-06-15 21:21:00,68.5,64.5,29.77,SW,227,0.0,0.0,87,0.00,,---,0.25,0.00,VWS V14.01,2013-06-16 02:21:00,
2013-06-15 21:31:00,67.6,63.9,29.78,SW,228,0.0,0.0,88,0.00,,---,0.25,0.00,VWS V14.01,2013-06-16 02:31:00,
2013-06-15 21:36:00,67.2,63.8,29.78,SW,228,0.0,0.0,89,0.00,,---,0.25,0.00,VWS V14.01,2013-06-16 02:36:00,
2013-06-15 21:41:00,66.9,63.6,29.78,SW,227,0.0,0.0,89,0.00,,---,0.25,0.00,VWS V14.01,2013-06-16 02:41:00,
2013-06-15 21:46:00,66.6,63.6,29.79,SW,227,0.0,0.0,90,0.00,,---,0.25,0.00,VWS V14.01,2013-06-16 02:46:00,
2013-06-15 21:51:00,66.4,63.7,29.79,SW,228,0.0,0.0,91,0.00,,---,0.25,0.00,VWS V14.01,2013-06-16 02:51:00,
2013-06-15 21:56:00,66.3,63.6,29.79,SW,227,0.0,0.0,91,0.00,,---,0.25,0.00,VWS V14.01,2013-06-16 02:56:00,
2013-06-15 22:01:00,66.1,63.4,29.79,SW,228,0.0,0.0,91,0.00,,---,0.25,0.00,VWS V14.01,2013-06-16 03:01:00,
2013-06-15 22:11:00,65.7,63.3,29.80,SW,228,0.0,0.0,92,0.00,,---,0.25,0.00,VWS V14.01,2013-06-16 03:11:00,
2013-06-15 22:16:00,65.4,63.0,29.80,SW,228,0.0,0.0,92,0.00,,---,0.25,0.00,VWS V14.01,2013-06-16 03:16:00,
2013-06-15 22:21:00,65.1,62.7,29.80,SW,227,0.0,0.0,92,0.00,,---,0.25,0.00,VWS V14.01,2013-06-16 03:21:00,
2013-06-15 22:26:00,64.8,62.4,29.80,SW,228,0.0,0.0,92,0.00,,---,0.25,0.00,VWS V14.01,2013-06-16 03:26:00,
2013-06-15 22:31:00,64.6,62.2,29.81,SW,227,0.0,0.0,92,0.00,,---,0.25,0.00,VWS V14.01,2013-06-16 03:31:00,
2013-06-15 22:36:00,64.4,62.0,29.81,SW,227,0.0,0.0,92,0.00,,---,0.25,0.00,VWS V14.01,2013-06-16 03:36:00,
2013-06-15 22:41:00,64.2,61.8,29.81,SW,228,0.0,0.0,92,0.00,,---,0.25,0.00,VWS V14.01,2013-06-16 03:41:00,
2013-06-15 22:46:00,64.0,61.9,29.81,SW,228,0.0,0.0,93,0.00,,---,0.25,0.00,VWS V14.01,2013-06-16 03:46:00,
2013-06-15 22:56:00,63.8,61.7,29.81,SW,227,0.0,0.0,93,0.00,,---,0.25,0.00,VWS V14.01,2013-06-16 03:56:00,
2013-06-15 23:01:00,63.6,61.5,29.81,SW,227,0.0,0.0,93,0.00,,---,0.25,0.00,VWS V14.01,2013-06-16 04:01:00,
2013-06-15 23:06:00,63.4,61.3,29.81,SW,228,0.0,0.0,93,0.00,,---,0.25,0.00,VWS V14.01,2013-06-16 04:06:00,
2013-06-15 23:11:00,63.2,61.2,29.81,SW,227,0.0,0.0,93,0.00,,---,0.25,0.00,VWS V14.01,2013-06-16 04:11:00,
2013-06-15 23:16:00,62.9,61.2,29.81,SW,227,0.0,0.0,94,0.00,,---,0.25,0.00,VWS V14.01,2013-06-16 04:16:00,
2013-06-15 23:21:00,62.7,61.0,29.81,SW,228,0.0,0.0,94,0.00,,---,0.25,0.00,VWS V14.01,2013-06-16 04:21:00,
2013-06-15 23:26:00,62.4,60.7,29.81,SW,228,0.0,0.0,94,0.00,,---,0.25,0.00,VWS V14.01,2013-06-16 04:26:00,
2013-06-15 23:31:00,62.1,60.4,29.81,SW,228,0.0,0.0,94,0.00,,---,0.25,0.00,VWS V14.01,2013-06-16 04:31:00,
2013-06-15 23:36:00,61.9,60.2,29.81,SW,228,0.0,0.0,94,0.00,,---,0.25,0.00,VWS V14.01,2013-06-16 04:36:00,
2013-06-15 23:41:00,61.7,60.0,29.81,SW,228,0.0,0.0,94,0.00,,---,0.25,0.00,VWS V14.01,2013-06-16 04:41:00,
2013-06-15 23:51:00,61.6,59.9,29.81,SW,227,0.0,0.0,94,0.00,,---,0.25,0.00,VWS V14.01,2013-06-16 04:51:00,
2013-06-15 23:56:00,61.5,59.8,29.81,SW,227,0.0,0.0,94,0.00,,---,0.25,0.00,VWS V14.01,2013-06-16 04:56:00,